ASTRA 2F 1 38778U 12051A 21056.51916396 .00000147 00000-0 00000-0 0 9998 2 38778 0.1001 252.5479 0002574 26.0413 92.0998 1.00275989 21680 GSAT-10 1 38779U 12051B 21056.53006844 -.00000168 00000-0 00000-0 0 9993 2 38779 0.0980 273.6738 0002303 348.4595 167.3051 1.00271090 30685 ARIANE 5 R/B 1 38780U 12051C 21056.39493818 .00000524 00000-0 15465-3 0 9999 2 38780 5.9708 221.2915 7099968 10.6065 358.6274 2.50806253 74338 ARIANE 5 DEB [SYLDA] 1 38781U 12051D 21056.38256083 .00050272 00000-0 44895-2 0 9993 2 38781 6.3776 91.8998 5027066 246.6668 53.8388 5.62019737134302